When you browse on this site, cookies collect data to enhance your experience and personalize the content and advertising you see.
Visit our Privacy Policy to learn more. By continuing to use the site, you agree to this use of cookies and data.
  • In Romania
  • List of Countries
  • For 7 days
  • Water Temperature
  • Weather Map
  • Weather Widgets
  • user-avatar
    Login

    Hourly Weather Koudougou

    Today, 12 November, Tuesday

    Time Temperature Precipitation Wind Pressure Humidity
    00:00 +29°C° 0 mm 1 mps 730 mmHg 27%
    01:00 +29°C° 0 mm 1 mps 730 mmHg 27%
    02:00 +28°C° 0 mm 2 mps 729 mmHg 26%
    03:00 +28°C° 0 mm 2 mps 729 mmHg 25%
    04:00 +28°C° 0 mm 2 mps 729 mmHg 24%
    05:00 +27°C° 0 mm 2 mps 730 mmHg 22%
    06:00 +26°C° 0 mm 3 mps 730 mmHg 21%
    07:00 +29°C° 0 mm 3 mps 730 mmHg 18%
    08:00 +32°C° 0 mm 4 mps 731 mmHg 16%
    09:00 +34°C° 0 mm 4 mps 731 mmHg 13%
    10:00 +35°C° 0 mm 4 mps 731 mmHg 12%
    11:00 +37°C° 0 mm 4 mps 731 mmHg 12%
    12:00 +38°C° 0 mm 3 mps 730 mmHg 11%
    13:00 +39°C° 0 mm 3 mps 730 mmHg 11%
    14:00 +39°C° 0 mm 3 mps 729 mmHg 11%
    15:00 +39°C° 0 mm 2 mps 728 mmHg 11%
    16:00 +38°C° 0 mm 2 mps 728 mmHg 12%
    17:00 +36°C° 0 mm 2 mps 728 mmHg 14%
    18:00 +34°C° 0 mm 2 mps 729 mmHg 16%
    19:00 +32°C° 0 mm 2 mps 729 mmHg 16%
    20:00 +31°C° 0 mm 2 mps 730 mmHg 16%
    21:00 +31°C° 0 mm 3 mps 730 mmHg 16%
    22:00 +30°C° 0 mm 3 mps 730 mmHg 16%
    23:00 +29°C° 0 mm 3 mps 730 mmHg 16%

    Tomorrow, 13 November, Wednesday

    Time Temperature Precipitation Wind Pressure Humidity
    00:00 +28°C° 0 mm 3 mps 730 mmHg 16%
    01:00 +28°C° 0 mm 3 mps 730 mmHg 16%
    02:00 +27°C° 0 mm 3 mps 730 mmHg 16%
    03:00 +26°C° 0 mm 3 mps 730 mmHg 17%
    04:00 +26°C° 0 mm 3 mps 730 mmHg 17%
    05:00 +25°C° 0 mm 3 mps 730 mmHg 17%
    06:00 +25°C° 0 mm 3 mps 730 mmHg 17%
    07:00 +27°C° 0 mm 4 mps 731 mmHg 15%
    08:00 +29°C° 0 mm 5 mps 732 mmHg 14%
    09:00 +33°C° 0 mm 6 mps 732 mmHg 13%
    10:00 +34°C° 0 mm 5 mps 732 mmHg 12%
    11:00 +36°C° 0 mm 5 mps 731 mmHg 11%
    12:00 +39°C° 0 mm 5 mps 731 mmHg 10%
    13:00 +38°C° 0 mm 4 mps 730 mmHg 10%
    14:00 +39°C° 0 mm 3 mps 730 mmHg 10%
    15:00 +39°C° 0 mm 2 mps 729 mmHg 10%
    16:00 +37°C° 0 mm 2 mps 729 mmHg 12%
    17:00 +35°C° 0 mm 2 mps 729 mmHg 13%
    18:00 +32°C° 0 mm 2 mps 729 mmHg 15%
    19:00 +33°C° 0 mm 3 mps 730 mmHg 15%
    20:00 +31°C° 0 mm 3 mps 731 mmHg 16%
    21:00 +30°C° 0 mm 3 mps 731 mmHg 17%
    22:00 +29°C° 0 mm 3 mps 731 mmHg 18%
    23:00 +28°C° 0 mm 3 mps 731 mmHg 18%

    Day after tomorrow, 14 November, Thursday

    Time Temperature Precipitation Wind Pressure Humidity
    00:00 +28°C° 0 mm 3 mps 731 mmHg 19%
    01:00 +27°C° 0 mm 3 mps 731 mmHg 20%
    02:00 +27°C° 0 mm 3 mps 730 mmHg 20%
    03:00 +26°C° 0 mm 3 mps 730 mmHg 21%
    04:00 +26°C° 0 mm 3 mps 730 mmHg 21%
    05:00 +25°C° 0 mm 3 mps 731 mmHg 22%
    06:00 +25°C° 0 mm 3 mps 731 mmHg 22%
    07:00 +27°C° 0 mm 4 mps 731 mmHg 20%
    08:00 +29°C° 0 mm 5 mps 732 mmHg 18%
    09:00 +33°C° 0 mm 6 mps 733 mmHg 16%
    10:00 +35°C° 0 mm 5 mps 732 mmHg 14%
    11:00 +36°C° 0 mm 5 mps 732 mmHg 13%
    12:00 +38°C° 0 mm 4 mps 731 mmHg 12%
    13:00 +40°C° 0 mm 4 mps 731 mmHg 11%
    14:00 +39°C° 0 mm 3 mps 730 mmHg 11%
    15:00 +39°C° 0 mm 3 mps 730 mmHg 11%
    16:00 +37°C° 0 mm 3 mps 729 mmHg 13%
    17:00 +35°C° 0 mm 2 mps 729 mmHg 14%
    18:00 +34°C° 0 mm 2 mps 729 mmHg 16%
    19:00 +33°C° 0 mm 3 mps 730 mmHg 16%
    20:00 +31°C° 0 mm 3 mps 730 mmHg 17%
    21:00 +30°C° 0 mm 3 mps 731 mmHg 18%
    22:00 +29°C° 0 mm 3 mps 731 mmHg 18%
    23:00 +29°C° 0 mm 3 mps 731 mmHg 18%

    15 November, Friday

    Time Temperature Precipitation Wind Pressure Humidity
    00:00 +28°C° 0 mm 3 mps 730 mmHg 18%
    01:00 +28°C° 0 mm 3 mps 730 mmHg 18%
    02:00 +27°C° 0 mm 3 mps 730 mmHg 18%
    03:00 +27°C° 0 mm 3 mps 730 mmHg 19%
    04:00 +26°C° 0 mm 2 mps 730 mmHg 19%
    05:00 +25°C° 0 mm 2 mps 730 mmHg 19%
    06:00 +25°C° 0 mm 2 mps 730 mmHg 19%
    07:00 +27°C° 0 mm 2 mps 731 mmHg 17%
    08:00 +30°C° 0 mm 3 mps 731 mmHg 15%
    09:00 +33°C° 0 mm 4 mps 732 mmHg 13%
    10:00 +35°C° 0 mm 3 mps 731 mmHg 12%
    11:00 +37°C° 0 mm 3 mps 731 mmHg 11%
    12:00 +38°C° 0 mm 3 mps 730 mmHg 10%
    13:00 +39°C° 0 mm 3 mps 730 mmHg 10%
    14:00 +39°C° 0 mm 3 mps 729 mmHg 10%
    15:00 +39°C° 0 mm 2 mps 729 mmHg 10%
    16:00 +37°C° 0 mm 2 mps 729 mmHg 12%
    17:00 +35°C° 0 mm 2 mps 729 mmHg 14%
    18:00 +33°C° 0 mm 1 mps 729 mmHg 15%
    19:00 +32°C° 0 mm 2 mps 729 mmHg 16%
    20:00 +31°C° 0 mm 2 mps 730 mmHg 16%
    21:00 +31°C° 0 mm 2 mps 730 mmHg 16%
    22:00 +30°C° 0 mm 2 mps 730 mmHg 17%
    23:00 +29°C° 0 mm 2 mps 730 mmHg 17%

    16 November, Saturday

    Time Temperature Precipitation Wind Pressure Humidity
    00:00 +29°C° 0 mm 2 mps 730 mmHg 18%
    01:00 +28°C° 0 mm 2 mps 730 mmHg 18%
    02:00 +28°C° 0 mm 2 mps 729 mmHg 18%
    03:00 +27°C° 0 mm 2 mps 729 mmHg 19%
    04:00 +27°C° 0 mm 2 mps 729 mmHg 19%
    05:00 +26°C° 0 mm 2 mps 729 mmHg 20%
    06:00 +26°C° 0 mm 2 mps 729 mmHg 20%
    07:00 +28°C° 0 mm 2 mps 730 mmHg 18%
    08:00 +30°C° 0 mm 3 mps 731 mmHg 16%
    09:00 +34°C° 0 mm 3 mps 731 mmHg 14%
    10:00 +36°C° 0 mm 3 mps 731 mmHg 12%
    11:00 +38°C° 0 mm 4 mps 730 mmHg 11%
    12:00 +40°C° 0 mm 4 mps 730 mmHg 9%
    13:00 +41°C° 0 mm 4 mps 729 mmHg 10%
    14:00 +41°C° 0 mm 4 mps 729 mmHg 10%
    15:00 +40°C° 0 mm 3 mps 728 mmHg 10%
    16:00 +38°C° 0 mm 3 mps 728 mmHg 11%
    17:00 +36°C° 0 mm 3 mps 728 mmHg 12%
    18:00 +35°C° 0 mm 3 mps 728 mmHg 14%
    19:00 +34°C° 0 mm 3 mps 729 mmHg 14%
    20:00 +33°C° 0 mm 3 mps 729 mmHg 15%
    21:00 +31°C° 0 mm 3 mps 730 mmHg 15%
    22:00 +31°C° 0 mm 3 mps 730 mmHg 15%
    23:00 +30°C° 0 mm 3 mps 730 mmHg 16%

    17 November, Sunday

    Time Temperature Precipitation Wind Pressure Humidity
    00:00 +30°C° 0 mm 3 mps 730 mmHg 16%
    01:00 +29°C° 0 mm 3 mps 730 mmHg 17%
    02:00 +28°C° 0 mm 3 mps 729 mmHg 18%
    03:00 +27°C° 0 mm 3 mps 729 mmHg 19%
    04:00 +27°C° 0 mm 2 mps 729 mmHg 19%
    05:00 +26°C° 0 mm 2 mps 729 mmHg 19%
    06:00 +26°C° 0 mm 2 mps 730 mmHg 20%
    07:00 +28°C° 0 mm 3 mps 730 mmHg 17%
    08:00 +32°C° 0 mm 4 mps 731 mmHg 15%
    09:00 +34°C° 0 mm 5 mps 732 mmHg 13%
    10:00 +36°C° 0 mm 5 mps 731 mmHg 12%
    11:00 +39°C° 0 mm 5 mps 731 mmHg 11%
    12:00 +41°C° 0 mm 6 mps 730 mmHg 10%
    13:00 +41°C° 0 mm 5 mps 730 mmHg 10%
    14:00 +41°C° 0 mm 5 mps 729 mmHg 10%
    15:00 +42°C° 0 mm 5 mps 728 mmHg 10%
    16:00 +40°C° 0 mm 4 mps 729 mmHg 11%
    17:00 +37°C° 0 mm 4 mps 729 mmHg 12%
    18:00 +35°C° 0 mm 3 mps 729 mmHg 14%
    19:00 +34°C° 0 mm 3 mps 729 mmHg 14%
    20:00 +33°C° 0 mm 3 mps 730 mmHg 15%
    21:00 +31°C° 0 mm 3 mps 730 mmHg 15%
    22:00 +30°C° 0 mm 3 mps 731 mmHg 15%
    23:00 +30°C° 0 mm 3 mps 731 mmHg 16%
    Show more